Location: Peterborough
(44.3048°N, 78.3199°W)
Time: 03:50:02
(UTC-04:00)

ISS - Pass Details

Date: 20 May 2025
Orbit: 415 x 418 km, 51.6° (Epoch: 20 June)

Event Time Altitude Azimuth Distance (km) Brightness Sun altitude
Rises 23:11:03 0° 301° (WNW) 2,361 1.1 -20.0°
Reaches altitude 10° 23:13:09 10° 302° (WNW) 1,494 -0.1 -20.2°
Enters shadow 23:16:23 80° 340° (NNW) 426 -3.8 -20.4°
